FW2969 Weather Reports


time (UTC)temp
C
wind
direction
speed
KPH
gust
KPH
rain 1hr
cm
rain 24hr
cm
rain mn
cm
humidity
%
barometer
mb
20260903204521 21 176 0.0 1.6 0.00 0.00 0.00 95 1007.8
20260903203021 21 176 0.0 1.6 0.00 0.00 0.00 94 1007.7
20260903201521 21 176 0.0 3.2 0.00 0.00 0.00 94 1007.8
20260903200020 21 129 0.0 0.0 0.00 0.00 0.00 95 1007.8
20260903194525 21 129 0.0 1.6 0.00 0.00 0.00 94 1007.6
20260903193019 21 129 0.0 1.6 0.00 0.00 0.00 94 1007.7
20260903191528 21 129 0.0 0.0 0.00 0.00 0.00 94 1007.6
20260903190018 21 129 0.0 0.0 0.00 0.00 0.00 94 1007.6
20260903184518 21 336 0.0 3.2 0.00 0.00 0.00 94 1007.5
20260903183017 21 339 0.0 1.6 0.00 0.00 0.00 93 1007.5
20260903181517 21 337 0.0 0.0 0.00 0.00 0.00 93 1007.6
20260903180022 21 327 0.0 1.6 0.00 0.00 0.00 92 1007.6
20260903174520 21 328 0.0 1.6 0.00 0.00 0.00 92 1007.5
20260903173015 21 328 0.0 0.0 0.00 0.00 0.00 91 1007.3
20260903171515 21 328 0.0 1.6 0.00 0.00 0.00 91 1007.3
20260903170020 21 328 0.0 0.0 0.00 0.00 0.00 90 1007.0
20260903164513 21 328 0.0 0.0 0.00 0.00 0.00 89 1006.9
20260903163012 22 328 0.0 1.6 0.00 0.00 0.00 88 1006.8
20260903161513 22 328 0.0 1.6 0.00 0.00 0.00 87 1006.8
20260903160012 22 308 0.0 1.6 0.00 0.00 0.00 85 1006.8
20260903154511 23 297 0.0 1.6 0.00 0.00 0.00 83 1006.8
20260903153011 24 299 0.0 4.8 0.00 0.00 0.00 81 1006.8
20260903151511 25 261 0.0 3.2 0.00 0.00 0.00 79 1006.8
20260903150011 25 255 0.0 4.8 0.00 0.00 0.00 77 1006.8
20260903144508 25 259 1.6 4.8 0.00 0.00 0.00 76 1006.9
20260903143009 25 285 0.0 6.4 0.00 0.00 0.00 78 1006.8
20260903141506 25 259 3.2 11.3 0.00 0.00 0.00 76 1006.7
20260903140006 25 301 1.6 8.0 0.00 0.00 0.00 77 1006.7
20260903134505 26 309 1.6 9.7 0.00 0.00 0.00 76 1006.6
20260903133005 26 309 1.6 6.4 0.00 0.00 0.00 75 1006.5
20260903131504 26 299 3.2 9.7 0.00 0.00 0.00 74 1006.6
20260903130002 26 284 3.2 8.0 0.00 0.00 0.00 73 1006.6
20260903124503 26 300 3.2 16.1 0.00 0.00 0.00 74 1006.6
20260903123102 26 297 1.6 6.4 0.00 0.00 0.00 74 1006.6
20260903121559 26 261 1.6 8.0 0.00 0.00 0.00 74 1006.6
20260903120104 26 308 1.6 9.7 0.00 0.00 0.00 76 1006.8
20260903114601 26 233 1.6 14.5 0.00 0.00 0.00 79 1006.8
20260903113058 26 313 6.4 17.7 0.00 0.00 0.00 76 1006.9
20260903111553 26 329 4.8 14.5 0.00 0.00 0.00 78 1007.0
20260903110050 26 293 1.6 12.9 0.00 0.00 0.00 80 1007.1
20260903104550 25 326 3.2 16.1 0.00 0.00 0.00 82 1007.2
20260903103049 25 315 3.2 16.1 0.00 0.00 0.00 82 1007.3
20260903101556 25 272 3.2 14.5 0.00 0.00 0.00 83 1007.3
20260903100050 25 273 3.2 8.0 0.00 0.00 0.00 82 1007.3
20260903094612 25 321 1.6 12.9 0.00 0.00 0.00 81 1007.4
20260903093045 25 250 1.6 9.7 0.00 0.00 0.00 81 1007.5
20260903091543 25 271 1.6 9.7 0.00 0.00 0.00 84 1007.6
20260903090039 24 305 0.0 6.4 0.00 0.00 0.00 86 1007.8
20260903084538 23 259 3.2 8.0 0.00 0.00 0.00 88 1007.9
20260903083041 23 284 1.6 8.0 0.00 0.00 0.00 87 1008.1
20260903081536 23 300 3.2 14.5 0.00 0.00 0.00 86 1008.0
20260903080048 24 287 3.2 16.1 0.00 0.00 0.00 85 1008.0
20260903074532 24 303 1.6 9.7 0.00 0.00 0.00 83 1007.9
20260903073033 24 289 1.6 8.0 0.00 0.00 0.00 83 1007.8
20260903071531 24 293 0.0 4.8 0.00 0.00 0.00 81 1007.8
20260903070032 23 296 1.6 4.8 0.00 0.00 0.00 83 1007.8
20260903064530 23 321 1.6 4.8 0.00 0.00 0.00 84 1007.9
20260903063027 23 317 0.0 4.8 0.00 0.00 0.00 85 1007.8
20260903061527 22 300 0.0 3.2 0.00 0.00 0.00 86 1007.9
20260903060026 22 255 0.0 3.2 0.00 0.00 0.00 88 1007.9
20260903054525 22 305 0.0 4.8 0.00 0.00 0.00 91 1008.0
20260903053024 21 316 0.0 3.2 0.00 0.00 0.00 91 1008.0
20260903051524 21 334 0.0 3.2 0.00 0.00 0.00 91 1008.0
20260903050025 21 38 0.0 1.6 0.00 0.00 0.00 91 1008.1
20260903044523 21 68 0.0 3.2 0.00 0.00 0.00 91 1008.1
20260903043025 20 70 0.0 1.6 0.00 0.00 0.00 91 1008.3
20260903041521 20 70 0.0 1.6 0.00 0.00 0.00 90 1008.3
20260903040020 20 70 0.0 0.0 0.00 0.00 0.00 89 1008.2
20260903034520 20 70 0.0 3.2 0.00 0.00 0.00 88 1008.1
20260903033019 20 28 0.0 1.6 0.00 0.00 0.00 85 1008.0
20260903031519 20 28 0.0 0.0 0.00 0.00 0.00 84 1007.9
20260903030018 20 28 0.0 0.0 0.00 0.00 0.00 82 1007.8
20260903024517 20 28 0.0 0.0 0.00 0.00 0.00 81 1007.6
20260903023016 19 28 0.0 1.6 0.00 0.00 0.00 79 1007.6
20260903021518 19 28 0.0 1.6 0.00 0.00 0.00 78 1007.5
20260903020015 19 27 0.0 0.0 0.00 0.00 0.00 81 1007.4
20260903014514 18 27 0.0 1.6 0.00 0.00 0.00 83 1007.4
20260903013013 18 27 0.0 1.6 0.00 0.00 0.00 87 1007.6
20260903011509 20 28 0.0 1.6 0.00 0.00 0.00 89 1007.6
20260903010005 20 28 0.0 1.6 0.00 0.00 0.00 90 1007.8
20260903004504 21 27 0.0 1.6 0.00 0.00 0.00 89 1008.0
20260903003002 21 29 0.0 0.0 0.00 0.00 0.00 86 1008.1
20260903001606 21 29 0.0 1.6 0.00 0.00 0.00 84 1008.0
20260903000058 22 30 0.0 3.2 0.00 0.00 0.00 79 1008.2
20260902234551 22 37 0.0 3.2 0.00 0.00 0.00 65 1008.1
20260902233049 22 38 0.0 0.0 0.00 0.00 0.00 56 1008.1
20260902231547 22 39 0.0 1.6 0.00 0.00 0.00 54 1007.9
20260902230046 23 38 0.0 0.0 0.00 0.00 0.00 51 1007.8
20260902224547 23 38 0.0 1.6 0.00 0.00 0.00 49 1008.0
20260902223037 24 38 0.0 0.0 0.00 0.00 0.00 47 1008.1
20260902221541 24 44 0.0 0.0 0.00 0.00 0.00 47 1008.1
20260902220045 24 44 0.0 0.0 0.00 0.00 0.00 48 1008.0
20260902214534 24 44 0.0 0.0 0.00 0.00 0.00 49 1008.1
20260902213030 24 44 0.0 1.6 0.00 0.00 0.00 48 1008.4
20260902211528 25 44 0.0 0.0 0.00 0.00 0.00 46 1008.5
20260902210025 25 6 0.0 1.6 0.00 0.00 0.00 44 1008.6